DELTA 1 DEB, 7059

Orbit data source: Space-Track

DELTA 1 DEB, 7059 is space debris in SSO originally from a launch on Tue, 06 Nov 1973 UTC launched from the Air Force Western Test Range (AFWTR). Debris objects in space refer to the collection of defunct objects orbiting the Earth. Examples of debris include non-operational satellites, rocket bodies, and fragments generated from explosions, collisions, or faulty payload assembly.

Loading next visibility...
Identifier
7059, 1973-086BB
Orbit
SSO
Country
Flag of USUS
Related business
Manufacturer
Unknown
Mission
Spacecraft
Bus & Motor
Unknown
Mass
Unknown
Launch date (UTC)
1973-11-06 (53 years ago)
Launch vehicle
Unknown
Launch site
Air Force Western Test Range (AFWTR)
Object type
Payload
Rocket body
Debris
Shape & HBR
Unknown shape, 0.2 m
Radar Cross Section
Medium (>0.1 m² and <1 m²)

Expand to show TLE details & history
Last TLE update: 14 hours ago

TLE from 14 hours ago
0 DELTA 1 DEB
1  7059U 73086BB  26209.17728337  .00000638  00000-0  58072-2 0  9993
2  7059 102.0161 321.5021 0105991 228.5742 250.5245 12.28489397354438
Epoch: 2026-07-28T04:15Z
TLE epoch observation values (Epoch: 2026-07-28T04:15:17.283Z)
Latitude
59.85105°
Longitude
153.21846°
Altitude
1,594.576 km
Speed
7.065 km/s
True Right ascension
10h 51m 33s
True Declination
59° 43' 02"
Sunlit
Object was in daylight at epoch
Visualization orbit readout
Latitude
Unknown
Longitude
Unknown
Altitude
Unknown
Speed
Unknown
Apparent Right ascension
Unknown
Apparent Declination
Unknown
Sunlit
N/A
Visualization observer readout
Local Sidereal Time
07:34:14
Azimuth
Unknown
Elevation
Unknown
Doppler factor
Unknown
Orbital elements
Apogee altitude
1,637.436 km
Perigee altitude
1,469.302 km
Semi-major axis
7,931.506 km
Eccentricity
0.0106
Inclination
102.0161°
RAAN
321.5021°
Arg. of periapsis
228.5742°
True anomaly
249.38454°
Mean anomaly
250.5245°
Eccentric anomaly
249.95401°
Mean motion
3.07263 °/min
Orbital period
117.16 mins
BSTAR
0.0058072
Loading maneuver chart data...
Computing Atmospheric mass density...
Loading historical data...
Loading historical data...
Loading historical data...
Loading historical data...
Loading historical data...
Loading historical data...
Loading historical data...

Documentation

Showing up to 5 results
|